STARLINK-1839 (47130 NORAD) Tracking and Keplerian Element Data
This shows tracking and keplerian element data for the satellite.
Feedback or suggestion? Click here.
Element | Value |
Catalog | 47130 |
Name | STARLINK-1839 |
Epoch Orbit | 181 |
Epoch Day | 60.91667824 |
Epoch Year | 2021 |
RAAN | 263.7518 |
Inclination | 53.0542 |
Eccentricity | 0.0003383 |
Argument of Perigee | 91.9105 |
Mean Anonmoly | 278.995 |
Mean Motion | 15.06383979 |
Decay Rate | 0.00011775 |
L1 | 1 47130U 20088J 21060.91667824 .00011775 00000-0 80836-3 0 9994 |
L2 | 2 47130 53.0542 263.7518 0003383 91.9105 278.9950 15.06383979 1811 |
Live tracking and technical data element details for STARLINK-1839 (NORAD 47130). STARLINK-1839 can be tracked NOW for your location showing map with azimuth and elevation plus other details from your city location.
Track the satellite on the map from your city or location and see movement details for azimuth, elevation, latitude, longitude, range, height, and movement on the map or in text.
IsCatalogInMostPopularTable: catalog: 47130, numindb: 28
Update: records affected: 1
GetName: 47130 STARLINK-1839
Hit Count: updated at: Tue, 02 Mar 2021 13:18:35 GMT